This demonstration page uses our WeatherBlox Daily Observations layout. Learn more.

Left ArrowRight Arrow

44.8408, -93.29828

Hourly Observations for August 9, 2017

Temp ( °F °C ) Dew Point ( °F °C ) Humidity (%) Winds ( mph kmh ) Pressure ( in mb ) Visibility ( mi km ) Precip ( " mm )
12:53 am 00:53 Cloudy 70 21.1 56 13.3 61 61 Calm 30.09 1019 10 16 0.00 0.00
1:53 am 01:53 Cloudy 70 21.1 56 13.3 61 61 SW 5 7 30.10 1019 10 16 0.00 0.00
2:53 am 02:53 Cloudy 69 20.6 56 13.3 63 63 S 3 6 30.09 1019 10 16 0.00 0.00
3:53 am 03:53 Mostly Cloudy 68 20 56 13.3 65 65 S 7 11 30.09 1019 10 16 0.00 0.00
4:53 am 04:53 Partly Cloudy 67 19.4 56 13.3 68 68 SSW 5 7 30.08 1019 10 16 0.00 0.00
5:53 am 05:53 Partly Cloudy 66 18.9 56 13.3 70 70 S 6 9 30.07 1018 10 16 0.00 0.00
6:53 am 06:53 Mostly Cloudy 66 18.9 55 12.8 68 68 S 5 7 30.08 1019 10 16 0.00 0.00
7:53 am 07:53 Mostly Cloudy 66 18.9 57 13.9 73 73 SE 5 7 30.08 1019 10 16 0.00 0.00
8:53 am 08:53 Mostly Cloudy 69 20.6 56 13.3 63 63 Calm 30.07 1018 10 16 0.00 0.00
9:53 am 09:53 Cloudy with Light Rain 67 19.4 57 13.9 71 71 SW 10 17 30.08 1019 9 14 0.01 0.25
10:53 am 10:53 Cloudy 68 20 59 15 73 73 S 8 13 30.06 1018 10 16 0.00 0.03
11:53 am 11:53 Cloudy with Light Rain 69 20.6 58 14.4 68 68 SW 12 19 30.07 1018 10 16 0.00 0.03
12:53 pm 12:53 Cloudy with Rain 65 18.3 61 16.1 87 87 S 8 13 30.07 1018 8 13 0.12 3.05
1:53 pm 13:53 Cloudy with Light Rain 66 18.9 62 16.7 87 87 S 9 15 30.05 1018 8 13 0.05 1.27
2:53 pm 14:53 Cloudy with Light Rain 66 18.9 62 16.7 87 87 SE 8 13 30.02 1017 4 6 0.13 3.30
3:53 pm 15:53 Cloudy 67 19.4 63 17.2 87 87 SE 10 17 30.01 1016 10 16 0.02 0.51
4:17 pm 16:17 Cloudy 67 19.4 63 17.2 87 87 SE 9 15 29.97 1015 10 16 0.00 0.00
4:27 pm 16:27 Cloudy 67 19.4 64 17.8 91 91 SSE 9 15 29.97 1015 10 16 0.00 0.00
4:53 pm 16:53 Cloudy with Light Rain 68 20 60 15.6 76 76 S 14 22 30.00 1016 10 16 0.00 0.03
5:32 pm 17:32 Cloudy with Light Rain 65 18.3 61 16.1 87 87 SSE 12 19 29.97 1015 6 10 0.04 1.02
5:53 pm 17:53 Cloudy 66 18.9 61 16.1 84 84 S 12 19 29.98 1015 10 16 0.04 1.02
6:45 pm 18:45 Cloudy 67 19.4 62 16.7 84 84 S 9 15 29.94 1014 10 16 0.00 0.00
6:53 pm 18:53 Cloudy 67 19.4 62 16.7 84 84 S 8 13 29.96 1015 10 16 0.00 0.00
7:53 pm 19:53 Cloudy 67 19.4 61 16.1 81 81 S 9 15 29.95 1014 10 16 0.00 0.00
8:53 pm 20:53 Mostly Cloudy 68 20 61 16.1 78 78 VRB 6 9 29.94 1014 10 16 0.00 0.03
9:53 pm 21:53 Cloudy 67 19.4 61 16.1 81 81 SSE 5 7 29.94 1014 10 16 0.00 0.00
10:53 pm 22:53 Cloudy 67 19.4 61 16.1 81 81 SSE 7 11 29.93 1014 10 16 0.00 0.00
11:33 pm 23:33 Cloudy with Thunderstorms 67 19.4 61 16.1 81 81 SSE 3 6 29.94 1014 10 16 0.00 0.00
11:53 pm 23:53 Cloudy with Thunderstorms 67 19.4 62 16.7 84 84 SW 5 7 29.94 1014 10 16 0.00 0.00

Powered by AerisWeather